User: anonymous   Login
Location: Irma
(52.9170°N, 111.2330°W)
Time: 21:35:42
(UTC-06:00)
Language:

Cosmos 1633 Rocket - Orbit

View from above orbital plane
View from above orbital plane
View from above satellite
View from above satellite

Ground track
Ground track

The orbit data is extracted from the following two-line orbital elements,

1 15593U 85020B   16244.76112049  .00000116  00000-0  11028-4 0  9999
2 15593  82.5402 173.4858 0010083 277.1784 109.7899 14.84226200701448
Epoch (UTC): 31 August 2016 18:16:00
Eccentricity: 0.0010083
inclination: 82.5402°
perigee height: 609 km
apogee height: 623 km
right ascension of ascending node: 173.4858°
argument of perigee: 277.1784°
revolutions per day: 14.84226200
mean anomaly at epoch: 109.7899°
orbit number at epoch: 70144

The dashed part of the orbit path shows where the satellite is in the earth's shadow,  

DLR